Regional Weather Roundup
Issued by NWS

Home | Current Version | Previous Version | Graphics & Text | Print | Product List | Glossary On
Versions: 1 2 3 4 5 6 7 8 9 10 11 12 13 14 15 16 17 18 19 20 21 22 23 24 25 26 27 28 29 30 31 32 33 34 35 36 37 38 39 40 41 42 43 44 45 46 47 48 49 50
000
ASUS43 KDTX 270501
RWRMI
MICHIGAN HOURLY REGIONAL WEATHER ROUNDUP
NATIONAL WEATHER SERVICE DETROIT/PONTIAC MI
100 AM EDT WED AUG 27 2014

NOTE: "FAIR" INDICATES FEW OR NO CLOUDS BELOW 12,000 FEET WITH NO
SIGNIFICANT WEATHER AND/OR OBSTRUCTION TO VISIBILITY.

MIZ047>049-052>055-059>063-066>070-074>076-081>083-270600-
SOUTHEAST LOWER MICHIGAN

CITY           SKY/WX    TMP DP  RH WIND       PRES   REMARKS
ADRIAN         CLEAR     70  69  97 NW7       30.10S
ALMA           CLEAR     64  60  88 NW5       30.11R
ANN ARBOR      CLEAR     69  66  90 NW5       30.09R
BAD AXE        CLOUDY    65  60  84 NE5       30.10S
CARO           CLOUDY    65  62  90 CALM      30.09R
DETROIT CITY   CLEAR     73  68  84 NW3       30.07S
DETROIT        MOCLDY    70  68  93 NW9       30.08R
FLINT          CLEAR     70  65  84 W7        30.08S
GROSSE ILE     CLEAR     72  68  88 NW3       30.06S
HILLSDALE      PTCLDY    71  71 100 NW3       30.12R FOG
HOWELL         CLEAR     67  66  97 W6        30.10R FOG

CITY           SKY/WX    TMP DP  RH WIND       PRES   REMARKS
JACKSON        PTCLDY    68  66  93 CALM      30.10S
LAMBERTVILLE   CLEAR     68  66  94 CALM      30.09R
LANSING        CLEAR     65  63  93 W6        30.10S
LAPEER         CLOUDY    70  68  93 NW5       30.08R
MASON          CLEAR     66  64  94 W5        30.10S
MONROE         PTCLDY    70  68  94 W3        30.06S
MT. CLEMENS    CLOUDY    71  69  91 W6        30.06R
PONTIAC        CLOUDY    70  67  90 W9        30.08S
PORT HOPE        N/A     65  58  78 N12       30.09R
PORT HURON     CLOUDY    66  63  88 N6        30.09R
TRI CITIES     CLEAR     67  63  87 N7        30.10R
TROY           CLOUDY    72  69  88 W3        30.09S
SAGINAW HB     CLEAR     64  64 100 NE5       30.09R
$$
MIZ043>046-050>051-056>058-064>065-071>073-077>080-270600-
SOUTHWEST LOWER MICHIGAN

CITY           SKY/WX    TMP DP  RH WIND       PRES   REMARKS
BATTLE CREEK   CLEAR     67  63  87 NW3       30.13R
BENTON HARBOR  CLEAR     62  61  96 CALM      30.12R
BIG RAPIDS     CLEAR     58  57  97 CALM      30.12R
COLDWATER      CLOUDY    72  70  95 N5        30.11S
FREMONT        FAIR      60  58  92 N3        30.11S
HOLLAND        CLEAR     63  60  90 CALM      30.12S
GRAND RAPIDS   CLEAR     64  61  90 CALM      30.12R
IONIA          FAIR      64  63  96 NW5       30.10S
KALAMAZOO      CLEAR     65  63  93 CALM      30.12R
LUDINGTON        N/A     56  55  98 CALM      30.12S FOG
MARSHALL       PTCLDY    68  65  93 CALM      30.11S
MOUNT PLEASANT CLEAR     63  60  90 CALM      30.10S
MUSKEGON       CLEAR     61  57  87 CALM      30.12R
SOUTH HAVEN    CLEAR     62  61  97 CALM      30.12R
$$
MIZ016>042-270600-
NORTHERN LOWER MICHIGAN

CITY           SKY/WX    TMP DP  RH WIND       PRES   REMARKS
ALPENA         CLEAR     53  51  93 CALM      30.11R
BEAVER ISLAND  CLEAR     57  51  79 CALM      30.13S
BELLAIRE       PTCLDY    54  53  95 CALM      30.11R
CADILLAC       CLEAR     52  51  97 CALM      30.12R
CHARLEVOIX     CLEAR     61  54  77 N9        30.15R
FRANKFORT      CLEAR     56  53  89 CALM      30.11S
GAYLORD        MOCLDY    58  55  90 CALM      30.13R
GRAYLING       FOG       54  54 100 CALM      30.13R VSB 1/2
HARBOR SPRINGS CLEAR     56  53  89 CALM      30.13R
HOUGHTON LAKE  CLEAR     54  53  97 CALM      30.13R FOG
MANISTEE       CLOUDY    54  52  94 CALM      30.12S VSB 1/2
OSCODA         CLOUDY    59  54  83 N5        30.10R
PELLSTON       CLEAR     50  49  96 CALM      30.13R
TRAVERSE CITY  CLEAR     57  54  89 CALM      30.10R
$$
MIZ007>008-015-270600-
EASTERN UPPER MICHIGAN

CITY           SKY/WX    TMP DP  RH WIND       PRES   REMARKS
KINROSS        PTCLDY    54  52  94 NW7       30.10S
MACKINAC ISLAN CLEAR     54  51  89 N7        30.11R
NEWBERRY       CLEAR     49  47  93 W3        30.11S
S. S. MARIE    CLEAR     54  49  83 NW6       30.09F
$$
MIZ004>006-011>014-085-270600-
CENTRAL UPPER MICHIGAN

CITY           SKY/WX    TMP DP  RH WIND       PRES   REMARKS
MANISTIQUE     CLEAR     50  48  91 CALM      30.13R
ESCANABA       CLEAR     54  48  82 CALM      30.14R
MENOMINEE      CLEAR     57  52  82 N5        30.13R
SAWYER-GWINN   CLEAR     53  46  79 NW6       30.14S
$$
MIZ001>003-009>011-084-270600-
WESTERN UPPER MICHIGAN

CITY           SKY/WX    TMP DP  RH WIND       PRES   REMARKS
IRON MOUNTAIN  CLEAR     51  48  89 CALM      30.14R
HOUGHTON       CLOUDY    58  50  75 NW5       30.13R
COPPER HARBOR    N/A     56  49  77 N6        30.12R
$$

ABBREVIATIONS USED IN REMARKS
   TC - TEMPERATURE IN CELSIUS
  WCI - WIND CHILL INDEX
   HX - HEAT INDEX
  VSB - VISIBILITY




USA.gov is the U.S. government's official web portal to all federal, state and local government web resources and services.